^^
Saratoga-Weather Station Historical Data
Daily Summary for July 21, 2021 Units:  English    Metric   Both
Daily Weekly Monthly Yearly Custom
  High: Low: Average:
Temperature: 68.2 °F 58.5 °F 62.2 °F
Dew Point: 57.2 °F 53.2 °F 54.5 °F
Humidity: 84% 66% 76%
Wind Speed: 2.9mph 0mph 0.7mph
Wind Gust: 6mph - -
Wind- - SSE
Pressure: 30.2 in 30.1 in -
Precipitation: 0 in    
Historical Graphs
 
 
Tabular Data for July 21, 2021
Time Temperature Dew Point Pressure Wind Wind Speed Wind Gust Humidity Rainfall Rate (Hourly) solar
00:03 66.6 °F 55.6 °F 30.1 in ESE 2 mph 6 mph 68% 0 in 0 W/m2
00:08 66.6 °F 55.6 °F 30.1 in Calm   2 mph 68% 0 in 0 W/m2
00:13 66.6 °F 55.6 °F 30.1 in ESE 0.9 mph 6 mph 68% 0 in 0 W/m2
00:18 66.4 °F 55.9 °F 30.1 in Calm   2 mph 69% 0 in 0 W/m2
00:23 65.8 °F 55 °F 30.1 in Calm   3 mph 68% 0 in 0 W/m2
00:28 65.7 °F 55.6 °F 30.1 in South 0.9 mph 2 mph 70% 0 in 0 W/m2
00:33 65.3 °F 55.2 °F 30.1 in Calm   1 mph 70% 0 in 0 W/m2
00:38 64.9 °F 55.4 °F 30.1 in South 0.9 mph 1 mph 71% 0 in 0 W/m2
00:43 64.8 °F 55.6 °F 30.1 in Calm   1 mph 72% 0 in 0 W/m2
00:48 64.6 °F 55 °F 30.1 in SSE 0.9 mph 3 mph 71% 0 in 0 W/m2
00:53 64.2 °F 54.7 °F 30.1 in South 2 mph 3 mph 71% 0 in 0 W/m2
00:58 64 °F 54.5 °F 30.1 in South 2 mph 2 mph 71% 0 in 0 W/m2
01:03 64 °F 54.5 °F 30.1 in Calm   1 mph 71% 0 in 0 W/m2
01:08 64 °F 54.9 °F 30.1 in SSE 0.9 mph 4 mph 72% 0 in 0 W/m2
01:13 63.9 °F 54.3 °F 30.1 in Calm   2 mph 71% 0 in 0 W/m2
01:18 63.9 °F 54.7 °F 30.1 in Calm   1 mph 72% 0 in 0 W/m2
01:23 63.7 °F 54.5 °F 30.1 in SSE 2 mph 3 mph 72% 0 in 0 W/m2
01:28 63.3 °F 54.5 °F 30.1 in NW 2.9 mph 3 mph 73% 0 in 0 W/m2
01:33 63.3 °F 54.5 °F 30.1 in West 2 mph 2 mph 73% 0 in 0 W/m2
01:38 63.3 °F 54.5 °F 30.1 in West 0.9 mph 2 mph 73% 0 in 0 W/m2
01:43 63.3 °F 54.1 °F 30.1 in East 0.9 mph 3 mph 72% 0 in 0 W/m2
01:48 63.3 °F 54.5 °F 30.1 in Calm     73% 0 in 0 W/m2
01:53 63.3 °F 54.1 °F 30.1 in ESE 0.9 mph 3 mph 72% 0 in 0 W/m2
01:58 63.3 °F 53.8 °F 30.1 in WSW 0.9 mph 3 mph 71% 0 in 0 W/m2
02:03 63.7 °F 54.1 °F 30.1 in Calm   3 mph 71% 0 in 0 W/m2
02:08 63.7 °F 54.5 °F 30.1 in Calm   1 mph 72% 0 in 0 W/m2
02:13 63.3 °F 54.5 °F 30.1 in Calm   1 mph 73% 0 in 0 W/m2
02:18 63 °F 54.1 °F 30.1 in Calm     73% 0 in 0 W/m2
02:23 62.6 °F 54.1 °F 30.1 in SW 0.9 mph 2 mph 74% 0 in 0 W/m2
02:28 62.2 °F 54.1 °F 30.1 in Calm   1 mph 75% 0 in 0 W/m2
02:33 62.1 °F 54.3 °F 30.1 in SW 0.9 mph 2 mph 76% 0 in 0 W/m2
02:38 61.9 °F 54.3 °F 30.1 in Calm   1 mph 76% 0 in 0 W/m2
02:43 62.1 °F 54.3 °F 30.1 in Calm   1 mph 76% 0 in 0 W/m2
02:49 62.1 °F 54.3 °F 30.1 in WNW 0.9 mph 1 mph 76% 0 in 0 W/m2
02:54 61.9 °F 54.3 °F 30.1 in Calm   2 mph 76% 0 in 0 W/m2
02:59 61.5 °F 54.3 °F 30.1 in Calm   1 mph 77% 0 in 0 W/m2
03:04 61.3 °F 54.5 °F 30.1 in Calm   1 mph 78% 0 in 0 W/m2
03:09 61.3 °F 54.1 °F 30.1 in SE 0.9 mph 2 mph 77% 0 in 0 W/m2
03:14 61.3 °F 54.1 °F 30.1 in Calm   4 mph 77% 0 in 0 W/m2
03:19 61.3 °F 54.1 °F 30.1 in ESE 0.9 mph 3 mph 77% 0 in 0 W/m2
03:24 61.5 °F 54.3 °F 30.1 in ESE 0.9 mph 2 mph 77% 0 in 0 W/m2
03:29 61.5 °F 54.7 °F 30.1 in Calm   4 mph 78% 0 in 0 W/m2
03:34 61.3 °F 54.5 °F 30.1 in SW 0.9 mph 2 mph 78% 0 in 0 W/m2
03:39 61.2 °F 54.3 °F 30.1 in SW 0.9 mph 3 mph 78% 0 in 0 W/m2
03:44 61 °F 54.1 °F 30.1 in Calm     78% 0 in 0 W/m2
03:49 61 °F 54.1 °F 30.1 in Calm   1 mph 78% 0 in 0 W/m2
03:54 61 °F 54.5 °F 30.1 in Calm     79% 0 in 0 W/m2
03:59 60.8 °F 54.3 °F 30.1 in SE 0.9 mph 2 mph 79% 0 in 0 W/m2
04:04 60.6 °F 54.1 °F 30.1 in Calm   2 mph 79% 0 in 0 W/m2
04:09 60.6 °F 54.1 °F 30.1 in ESE 0.9 mph 1 mph 79% 0 in 0 W/m2
04:14 60.6 °F 54.1 °F 30.1 in SSE 0.9 mph 1 mph 79% 0 in 0 W/m2
04:19 60.4 °F 54.3 °F 30.1 in SSE 0.9 mph 1 mph 80% 0 in 0 W/m2
04:24 60.3 °F 53.8 °F 30.1 in West 2 mph 2 mph 79% 0 in 0 W/m2
04:29 60.4 °F 54.3 °F 30.1 in NW 2.9 mph 3 mph 80% 0 in 0 W/m2
04:34 60.4 °F 54 °F 30.1 in Calm   1 mph 79% 0 in 0 W/m2
04:39 60.4 °F 53.6 °F 30.1 in Calm   3 mph 78% 0 in 0 W/m2
04:44 60.4 °F 53.6 °F 30.1 in Calm     78% 0 in 0 W/m2
04:49 60.4 °F 54 °F 30.1 in South 0.9 mph 1 mph 79% 0 in 0 W/m2
04:54 60.3 °F 53.8 °F 30.1 in Calm     79% 0 in 0 W/m2
04:59 60.1 °F 54 °F 30.1 in Calm     80% 0 in 0 W/m2
05:04 59.7 °F 53.6 °F 30.1 in Calm     80% 0 in 0 W/m2
05:09 59.5 °F 53.8 °F 30.1 in Calm     81% 0 in 0 W/m2
05:14 59.2 °F 53.4 °F 30.1 in Calm     81% 0 in 0 W/m2
05:19 59 °F 53.6 °F 30.1 in Calm     82% 0 in 0 W/m2
05:24 58.8 °F 53.4 °F 30.1 in South 0.9 mph 2 mph 82% 0 in 0 W/m2
05:29 58.6 °F 53.4 °F 30.1 in Calm   1 mph 83% 0 in 0 W/m2
05:34 58.6 °F 53.4 °F 30.1 in Calm   2 mph 83% 0 in 0 W/m2
05:39 58.5 °F 53.2 °F 30.1 in Calm     83% 0 in 0 W/m2
05:44 58.5 °F 53.2 °F 30.1 in Calm   2 mph 83% 0 in 0 W/m2
05:49 58.5 °F 53.6 °F 30.1 in Calm   1 mph 84% 0 in 0 W/m2
05:54 58.5 °F 53.6 °F 30.1 in Calm     84% 0 in 0 W/m2
05:59 58.5 °F 53.6 °F 30.1 in Calm   1 mph 84% 0 in 5 W/m2
06:04 58.6 °F 53.4 °F 30.1 in Calm   2 mph 83% 0 in 7 W/m2
06:09 58.6 °F 53.4 °F 30.1 in Calm     83% 0 in 9 W/m2
06:14 58.8 °F 53.6 °F 30.1 in Calm   2 mph 83% 0 in 12 W/m2
06:19 58.8 °F 53.6 °F 30.1 in WNW 0.9 mph 1 mph 83% 0 in 14 W/m2
06:24 58.6 °F 53.4 °F 30.1 in Calm   1 mph 83% 0 in 18 W/m2
06:29 58.6 °F 53.4 °F 30.1 in Calm     83% 0 in 21 W/m2
06:34 58.5 °F 53.6 °F 30.1 in Calm   1 mph 84% 0 in 25 W/m2
06:39 58.6 °F 53.4 °F 30.1 in Calm     83% 0 in 26 W/m2
06:44 58.6 °F 53.4 °F 30.1 in Calm     83% 0 in 30 W/m2
06:49 58.6 °F 53.4 °F 30.1 in West 0.9 mph 2 mph 83% 0 in 32 W/m2
06:55 58.8 °F 53.6 °F 30.1 in Calm     83% 0 in 35 W/m2
07:00 58.8 °F 53.4 °F 30.1 in Calm   2 mph 82% 0 in 37 W/m2
07:05 59.2 °F 53.6 °F 30.1 in Calm   3 mph 82% 0 in 40 W/m2
07:10 59.4 °F 53.6 °F 30.1 in Calm   4 mph 81% 0 in 42 W/m2
07:15 59.5 °F 53.8 °F 30.1 in Calm   2 mph 81% 0 in 44 W/m2
07:20 59.7 °F 53.6 °F 30.1 in NE 0.9 mph 4 mph 80% 0 in 46 W/m2
07:25 59.7 °F 53.6 °F 30.1 in Calm   2 mph 80% 0 in 47 W/m2
07:30 60.1 °F 54 °F 30.1 in East 0.9 mph 3 mph 80% 0 in 49 W/m2
07:35 60.1 °F 54 °F 30.1 in ENE 0.9 mph 3 mph 80% 0 in 51 W/m2
07:40 60.3 °F 54.1 °F 30.1 in NNW 2 mph 2 mph 80% 0 in 53 W/m2
07:45 60.4 °F 54.3 °F 30.1 in Calm   1 mph 80% 0 in 54 W/m2
07:50 60.6 °F 54.1 °F 30.1 in Calm   2 mph 79% 0 in 56 W/m2
07:55 60.8 °F 54.3 °F 30.1 in NNE 0.9 mph 1 mph 79% 0 in 142 W/m2
08:00 61 °F 54.5 °F 30.1 in North 0.9 mph 2 mph 79% 0 in 185 W/m2
08:05 61.3 °F 54.9 °F 30.1 in ENE 0.9 mph 2 mph 79% 0 in 128 W/m2
08:10 62.1 °F 55 °F 30.1 in North 0.9 mph 2 mph 78% 0 in 72 W/m2
08:15 62.6 °F 55.2 °F 30.1 in NE 0.9 mph 2 mph 77% 0 in 69 W/m2
08:20 63.1 °F 55.4 °F 30.1 in Calm   1 mph 76% 0 in 70 W/m2
08:25 63.7 °F 55.6 °F 30.1 in ESE 2 mph 4 mph 75% 0 in 70 W/m2
08:30 64 °F 55.6 °F 30.1 in East 2.9 mph 3 mph 74% 0 in 70 W/m2
08:35 64.2 °F 55.4 °F 30.2 in Calm   1 mph 73% 0 in 72 W/m2
08:40 64.4 °F 55.6 °F 30.2 in NNW 0.9 mph 2 mph 73% 0 in 74 W/m2
08:45 64.4 °F 55.6 °F 30.2 in WNW 2 mph 2 mph 73% 0 in 74 W/m2
08:50 64.6 °F 55.8 °F 30.2 in NNW 2 mph 3 mph 73% 0 in 76 W/m2
08:55 64.6 °F 55.8 °F 30.2 in Calm   1 mph 73% 0 in 76 W/m2
09:00 64.8 °F 55.2 °F 30.2 in Calm   3 mph 71% 0 in 88 W/m2
09:05 65.5 °F 55.8 °F 30.2 in ENE 0.9 mph 2 mph 71% 0 in 199 W/m2
09:10 65.7 °F 55.6 °F 30.2 in ESE 2 mph 3 mph 70% 0 in 374 W/m2
09:15 65.8 °F 55.8 °F 30.2 in SE 0.9 mph 3 mph 70% 0 in 410 W/m2
09:20 66 °F 55.2 °F 30.2 in East 2 mph 4 mph 68% 0 in 422 W/m2
09:25 66.2 °F 56.1 °F 30.2 in NNE 0.9 mph 1 mph 70% 0 in 438 W/m2
09:30 66.6 °F 56.1 °F 30.2 in ESE 0.9 mph 4 mph 69% 0 in 454 W/m2
09:35 66.6 °F 55.6 °F 30.2 in NE 0.9 mph 4 mph 68% 0 in 466 W/m2
09:40 66.4 °F 55.6 °F 30.2 in North 2 mph 3 mph 68% 0 in 480 W/m2
09:45 66.6 °F 56.1 °F 30.2 in ENE 2.9 mph 5 mph 69% 0 in 492 W/m2
09:50 66.9 °F 56.8 °F 30.2 in NE 2 mph 3 mph 70% 0 in 504 W/m2
09:55 67.3 °F 56.3 °F 30.2 in SE 0.9 mph 5 mph 68% 0 in 520 W/m2
10:00 67.6 °F 56.7 °F 30.2 in East 2.9 mph 4 mph 68% 0 in 418 W/m2
10:05 68 °F 57 °F 30.2 in ENE 2 mph 3 mph 68% 0 in 93 W/m2
10:10 68.2 °F 57.2 °F 30.2 in NW 2 mph 3 mph 68% 0 in 200 W/m2
10:15 68.2 °F 56.3 °F 30.2 in NE 2 mph 3 mph 66% 0 in 568 W/m2
Juneau County Weather
Compliments of Weather Underground - 2 mb